START_TIME,STEP,MOV.,M29,t_acc.,H22,t_acc.,H26,t_acc.,H30,t_acc.
1979-07-24 12:00:31.380 ,0,0,0.,24.0,0.,24.0,0.,24.0,0.,24.0
1979-07-24 12:00:55.380 ,1,1,0.,24.0,0.,24.0,0.,24.0,0.,24.0
1979-07-24 12:01:19.380 ,1,0,0.,24.0,0.,24.0,0.,24.0,0.,24.0
1979-07-24 12:01:43.380 ,2,1,0.,24.0,0.,24.0,0.,24.0,0.,24.0
1979-07-24 12:02:07.380 ,2,0,0.,24.0,0.,24.0,0.,24.0,0.,24.0
1979-07-24 12:02:31.380 ,3,1,0.,24.0,0.,24.0,0.,24.0,0.,24.0
1979-07-24 12:02:55.380 ,3,0,0.,24.0,0.,24.0,0.,24.0,0.,24.0
1979-07-24 12:03:19.380 ,4,1,0.,24.0,0.,24.0,0.,24.0,0.,24.0
1979-07-24 12:03:43.380 ,4,0,0.,24.0,0.,24.0,0.,24.0,0.,24.0
1979-07-24 12:04:07.380 ,5,1,0.,24.0,0.,24.0,0.,24.0,0.,24.0
1979-07-24 12:04:31.380 ,5,0,0.,24.0,0.,24.0,0.,24.0,0.,24.0
1979-07-24 12:04:55.380 ,6,1,0.,24.0,0.,24.0,0.,24.0,0.,24.0
1979-07-24 12:05:19.380 ,6,0,0.,24.0,0.,24.0,0.,24.0,0.,24.0
1979-07-24 12:05:43.380 ,7,1,0.,24.0,0.,24.0,0.,24.0,0.,24.0
1979-07-24 12:06:07.380 ,7,0,0.,24.0,0.,24.0,0.,24.0,0.,24.0
1979-07-24 12:06:31.380 ,7,1,0.,24.0,0.,24.0,0.,24.0,0.,24.0
1979-07-24 12:06:55.380 ,7,0,0.,24.0,0.,24.0,0.,24.0,0.,24.0
1979-07-24 12:07:19.380 ,6,1,0.,24.0,0.,24.0,0.,24.0,0.,24.0
1979-07-24 12:07:43.380 ,6,0,0.,24.0,0.,24.0,0.,24.0,0.,24.0
1979-07-24 12:08:07.380 ,5,1,0.,24.0,0.,24.0,0.,24.0,0.,24.0
1979-07-24 12:08:31.380 ,5,0,0.,24.0,0.,24.0,0.,24.0,0.,24.0
1979-07-24 12:08:55.380 ,4,1,0.,24.0,0.,24.0,0.,24.0,0.,24.0
1979-07-24 12:09:19.380 ,4,0,0.,24.0,0.,24.0,0.,24.0,0.,24.0
1979-07-24 12:09:43.380 ,3,1,0.,24.0,0.,24.0,0.,24.0,0.,24.0
1979-07-24 12:10:07.380 ,3,0,0.,24.0,0.,24.0,0.,24.0,0.,24.0
1979-07-24 12:10:31.380 ,2,1,0.,24.0,0.,24.0,0.,24.0,0.,24.0
1979-07-24 12:10:55.380 ,2,0,0.,24.0,0.,24.0,0.,24.0,0.,24.0
1979-07-24 12:11:19.380 ,1,1,0.,24.0,0.,24.0,0.,24.0,0.,24.0
1979-07-24 12:11:43.380 ,1,0,0.,24.0,0.,24.0,0.,24.0,0.,24.0
1979-07-24 12:12:07.380 ,0,1,0.,24.0,0.,24.0,0.,24.0,0.,24.0
1979-07-24 12:12:31.380 ,0,0,0.,24.0,0.,24.0,0.,24.0,0.,24.0
1979-07-24 12:12:55.380 ,0,1,0.,24.0,0.,24.0,0.,24.0,0.,24.0
1979-07-24 12:13:19.380 ,0,0,0.,24.0,0.,24.0,0.,24.0,0.,24.0
1979-07-24 12:13:43.380 ,1,1,0.,24.0,0.,24.0,0.,24.0,0.,24.0
1979-07-24 12:14:07.380 ,1,0,0.,24.0,0.,24.0,0.,24.0,0.,24.0
1979-07-24 12:14:31.380 ,2,1,0.,24.0,0.,24.0,0.,24.0,0.,24.0
1979-07-24 12:14:55.380 ,2,0,0.,24.0,0.,24.0,0.,24.0,0.,24.0
1979-07-24 12:15:19.380 ,3,1,0.,24.0,0.,24.0,0.,24.0,0.,24.0
1979-07-24 12:15:43.380 ,3,0,0.,24.0,0.,24.0,0.,24.0,0.,24.0
1979-07-24 12:16:07.380 ,4,1,0.,24.0,0.,24.0,0.,24.0,0.,24.0
1979-07-24 12:16:31.380 ,4,0,0.,24.0,0.,24.0,0.,24.0,0.,24.0
1979-07-24 12:16:55.380 ,5,1,0.,24.0,0.,24.0,0.,24.0,0.,24.0
1979-07-24 12:17:19.380 ,5,0,0.,24.0,0.,24.0,0.,24.0,0.,24.0
1979-07-24 12:17:43.380 ,6,1,0.,24.0,0.,24.0,0.,24.0,0.,24.0
1979-07-24 12:18:07.380 ,6,0,0.,24.0,0.,24.0,0.,24.0,0.,24.0
1979-07-24 12:18:31.380 ,7,0,0.,24.0,0.,24.0,0.,24.0,0.,24.0
1979-07-24 12:18:55.380 ,7,0,0.,24.0,0.,24.0,0.,24.0,0.,24.0
1979-07-24 12:19:19.380 ,5,1,0.,24.0,0.,24.0,0.,24.0,0.,24.0
1979-07-24 12:19:43.380 ,1,1,0.,24.0,0.,24.0,0.,24.0,0.,24.0
1979-07-24 12:20:07.380 ,2,1,0.,24.0,0.,24.0,0.,24.0,0.,24.0
1979-07-24 12:20:31.380 ,6,1,0.,24.0,0.,24.0,0.,24.0,0.,24.0
1979-07-24 12:20:55.380 ,5,1,0.,24.0,0.,24.0,0.,24.0,0.,24.0
1979-07-24 12:21:19.380 ,1,1,0.,24.0,0.,24.0,0.,24.0,0.,24.0
1979-07-24 12:21:43.380 ,2,1,0.,24.0,0.,24.0,0.,24.0,0.,24.0
1979-07-24 12:22:07.380 ,6,1,0.,24.0,0.,24.0,0.,24.0,0.,24.0
1979-07-24 12:22:31.380 ,5,1,0.,24.0,0.,24.0,0.,24.0,0.,24.0
1979-07-24 12:22:55.380 ,1,1,0.,24.0,0.,24.0,0.,24.0,0.,24.0
1979-07-24 12:23:19.380 ,2,1,0.,24.0,0.,24.0,0.,24.0,0.,24.0
1979-07-24 12:23:43.380 ,6,1,0.,24.0,0.,24.0,0.,24.0,0.,24.0
1979-07-24 12:24:07.380 ,5,1,0.,24.0,0.,24.0,0.,24.0,0.,24.0
1979-07-24 12:24:31.380 ,1,1,0.,24.0,0.,24.0,0.,24.0,0.,24.0
1979-07-24 12:24:55.380 ,2,1,0.,24.0,0.,24.0,0.,24.0,0.,24.0
1979-07-24 12:25:19.380 ,6,1,0.,24.0,0.,24.0,0.,24.0,0.,24.0
1979-07-24 12:26:31.380 ,0,0,0.,24.0,0.,24.0,0.,24.0,0.,24.0
1979-07-24 12:26:55.380 ,6,1,0.,24.0,0.,24.0,0.,24.0,0.,24.0
1979-07-24 12:27:19.380 ,5,1,0.,24.0,0.,24.0,0.,24.0,0.,24.0
1979-07-24 12:27:43.380 ,1,1,0.,24.0,0.,24.0,0.,24.0,0.,24.0
1979-07-24 12:28:07.380 ,2,1,0.,24.0,0.,24.0,0.,24.0,0.,24.0
1979-07-24 12:28:31.380 ,6,1,0.,24.0,0.,24.0,0.,24.0,0.,24.0
1979-07-24 12:28:55.380 ,5,1,1.,24.0,0.,24.0,0.,24.0,0.,24.0
1979-07-24 12:29:19.380 ,1,1,0.,24.0,0.,24.0,0.,24.0,0.,24.0
1979-07-24 12:29:43.380 ,0,0,0.,24.0,0.,24.0,0.,24.0,0.,24.0
1979-07-24 12:30:07.380 ,0,0,0.,24.0,0.,24.0,0.,24.0,0.,24.0
1979-07-24 12:30:31.380 ,5,1,0.,24.0,0.,24.0,0.,24.0,0.,24.0
1979-07-24 12:30:55.380 ,5,0,0.,24.0,0.,24.0,0.,24.0,0.,24.0
1979-07-24 12:31:19.380 ,4,1,0.,24.0,0.,24.0,0.,24.0,0.,24.0
1979-07-24 12:31:43.380 ,4,0,0.,24.0,0.,24.0,0.,24.0,0.,24.0
1979-07-24 12:32:07.380 ,3,1,0.,24.0,0.,24.0,0.,24.0,0.,24.0
1979-07-24 12:32:31.380 ,3,0,0.,24.0,0.,24.0,0.,24.0,0.,24.0
1979-07-24 12:32:55.380 ,2,1,0.,24.0,0.,24.0,0.,24.0,0.,24.0
1979-07-24 12:33:19.380 ,2,0,0.,24.0,0.,24.0,0.,24.0,0.,24.0
1979-07-24 12:33:43.380 ,1,1,0.,24.0,0.,24.0,0.,24.0,0.,24.0
1979-07-24 12:34:07.380 ,1,0,0.,24.0,0.,24.0,0.,24.0,0.,24.0
1979-07-24 12:34:31.380 ,0,1,0.,24.0,0.,24.0,0.,24.0,0.,24.0
1979-07-24 12:34:55.380 ,0,0,0.,24.0,0.,24.0,0.,24.0,0.,24.0
1979-07-24 12:35:19.380 ,0,1,0.,24.0,0.,24.0,0.,24.0,0.,24.0
1979-07-24 12:35:43.380 ,0,0,0.,24.0,0.,24.0,0.,24.0,0.,24.0
1979-07-24 12:36:07.380 ,1,1,0.,24.0,0.,24.0,0.,24.0,0.,24.0
1979-07-24 12:36:31.380 ,1,0,0.,24.0,0.,24.0,0.,24.0,0.,24.0
1979-07-24 12:36:55.380 ,2,1,0.,24.0,0.,24.0,0.,24.0,0.,24.0
1979-07-24 12:37:19.380 ,2,0,0.,24.0,0.,24.0,0.,24.0,0.,24.0
1979-07-24 12:37:43.380 ,3,1,0.,24.0,0.,24.0,0.,24.0,0.,24.0
1979-07-24 12:38:07.380 ,3,0,0.,24.0,0.,24.0,0.,24.0,0.,24.0
1979-07-24 12:38:31.380 ,4,1,0.,24.0,0.,24.0,0.,24.0,0.,24.0
1979-07-24 12:38:55.380 ,4,0,0.,24.0,0.,24.0,0.,24.0,0.,24.0
1979-07-24 12:39:19.380 ,5,1,0.,24.0,0.,24.0,0.,24.0,0.,24.0
1979-07-24 12:39:43.380 ,5,0,0.,24.0,0.,24.0,0.,24.0,0.,24.0
1979-07-24 12:40:07.380 ,6,1,0.,24.0,0.,24.0,0.,24.0,0.,24.0
1979-07-24 12:40:31.380 ,6,0,1.,24.0,0.,24.0,0.,24.0,0.,24.0
1979-07-24 12:40:55.380 ,7,1,0.,24.0,0.,24.0,0.,24.0,0.,24.0
1979-07-24 12:41:19.380 ,7,0,0.,24.0,0.,24.0,0.,24.0,0.,24.0
1979-07-24 12:41:43.380 ,7,1,0.,24.0,0.,24.0,0.,24.0,0.,24.0
1979-07-24 12:42:07.380 ,7,0,0.,24.0,0.,24.0,0.,24.0,0.,24.0
1979-07-24 12:42:31.380 ,6,1,0.,24.0,0.,24.0,0.,24.0,0.,24.0
1979-07-24 12:42:55.380 ,6,0,0.,24.0,0.,24.0,0.,24.0,0.,24.0
1979-07-24 12:43:19.380 ,5,1,0.,24.0,0.,24.0,0.,24.0,0.,24.0
1979-07-24 12:43:43.380 ,5,0,0.,24.0,0.,24.0,0.,24.0,0.,24.0
1979-07-24 12:44:07.380 ,4,1,0.,24.0,0.,24.0,0.,24.0,0.,24.0
1979-07-24 12:44:31.380 ,4,0,0.,24.0,0.,24.0,0.,24.0,0.,24.0
1979-07-24 12:44:55.380 ,3,1,0.,24.0,0.,24.0,0.,24.0,0.,24.0
1979-07-24 12:45:19.380 ,3,0,0.,24.0,0.,24.0,0.,24.0,0.,24.0
1979-07-24 12:45:43.380 ,2,1,0.,24.0,0.,24.0,0.,24.0,0.,24.0
1979-07-24 12:46:07.380 ,2,0,0.,24.0,0.,24.0,0.,24.0,0.,24.0
1979-07-24 12:46:31.380 ,1,1,1.,24.0,0.,24.0,0.,24.0,0.,24.0
1979-07-24 12:46:55.380 ,1,0,0.,24.0,0.,24.0,0.,24.0,0.,24.0
1979-07-24 12:47:19.380 ,0,1,0.,24.0,0.,24.0,0.,24.0,0.,24.0
1979-07-24 12:47:43.380 ,0,0,0.,24.0,0.,24.0,0.,24.0,0.,24.0
1979-07-24 12:48:07.380 ,0,1,0.,24.0,0.,24.0,0.,24.0,0.,24.0
1979-07-24 12:48:31.380 ,0,0,0.,24.0,0.,24.0,0.,24.0,0.,24.0
1979-07-24 12:48:55.380 ,1,1,0.,24.0,0.,24.0,0.,24.0,0.,24.0
1979-07-24 12:49:19.380 ,1,0,0.,24.0,0.,24.0,0.,24.0,0.,24.0
1979-07-24 12:49:43.380 ,2,1,0.,24.0,0.,24.0,0.,24.0,0.,24.0
1979-07-24 12:50:07.380 ,2,0,0.,24.0,0.,24.0,0.,24.0,0.,24.0
1979-07-24 12:50:31.380 ,3,1,0.,24.0,0.,24.0,0.,24.0,0.,24.0
1979-07-24 12:50:55.380 ,3,0,0.,24.0,0.,24.0,0.,24.0,0.,24.0
1979-07-24 12:51:19.380 ,4,1,0.,24.0,0.,24.0,0.,24.0,0.,24.0
1979-07-24 12:51:43.380 ,4,0,0.,24.0,0.,24.0,0.,24.0,0.,24.0
1979-07-24 12:52:55.380 ,0,0,0.,24.0,0.,24.0,0.,24.0,0.,24.0
1979-07-24 12:53:19.380 ,0,0,0.,24.0,0.,24.0,0.,24.0,0.,24.0
1979-07-24 12:53:43.380 ,7,1,0.,24.0,0.,24.0,0.,24.0,0.,24.0
1979-07-24 12:54:07.380 ,7,0,0.,24.0,0.,24.0,0.,24.0,0.,24.0
1979-07-24 12:54:31.380 ,7,1,0.,24.0,0.,24.0,0.,24.0,0.,24.0
1979-07-24 12:54:55.380 ,7,0,0.,24.0,0.,24.0,0.,24.0,0.,24.0
1979-07-24 12:55:19.380 ,6,1,0.,24.0,0.,24.0,0.,24.0,0.,24.0
1979-07-24 12:55:43.380 ,6,0,0.,24.0,0.,24.0,0.,24.0,0.,24.0
1979-07-24 12:56:07.380 ,5,1,0.,24.0,0.,24.0,0.,24.0,0.,24.0
1979-07-24 12:56:31.380 ,5,0,0.,24.0,0.,24.0,0.,24.0,0.,24.0
1979-07-24 12:56:55.380 ,4,1,0.,24.0,0.,24.0,0.,24.0,0.,24.0
1979-07-24 12:57:19.380 ,4,0,0.,24.0,0.,24.0,0.,24.0,0.,24.0
1979-07-24 12:57:43.380 ,3,1,0.,24.0,0.,24.0,0.,24.0,0.,24.0
1979-07-24 12:58:07.380 ,3,0,0.,24.0,0.,24.0,0.,24.0,0.,24.0
1979-07-24 12:58:31.380 ,2,1,0.,24.0,0.,24.0,0.,24.0,0.,24.0
1979-07-24 12:58:55.380 ,2,0,0.,24.0,0.,24.0,0.,24.0,0.,24.0
1979-07-24 12:59:19.380 ,1,1,0.,24.0,0.,24.0,0.,24.0,0.,24.0
1979-07-24 12:59:43.380 ,1,0,0.,24.0,0.,24.0,0.,24.0,0.,24.0
1979-07-24 13:00:07.380 ,0,1,0.,24.0,0.,24.0,0.,24.0,0.,24.0
1979-07-24 13:00:31.380 ,0,0,0.,24.0,0.,24.0,0.,24.0,0.,24.0
1979-07-24 13:00:55.380 ,0,1,0.,24.0,0.,24.0,0.,24.0,0.,24.0
1979-07-24 13:01:19.380 ,0,0,0.,24.0,0.,24.0,0.,24.0,0.,24.0
1979-07-24 13:01:43.380 ,1,1,0.,24.0,0.,24.0,0.,24.0,0.,24.0
1979-07-24 13:02:07.380 ,1,0,0.,24.0,0.,24.0,0.,24.0,0.,24.0
1979-07-24 13:02:31.380 ,2,1,0.,24.0,0.,24.0,0.,24.0,0.,24.0
1979-07-24 13:02:55.380 ,2,0,0.,24.0,0.,24.0,0.,24.0,0.,24.0
1979-07-24 13:03:19.380 ,3,1,0.,24.0,0.,24.0,0.,24.0,0.,24.0
1979-07-24 13:03:43.380 ,3,0,0.,24.0,0.,24.0,0.,24.0,0.,24.0
1979-07-24 13:04:07.380 ,4,1,0.,24.0,0.,24.0,0.,24.0,0.,24.0
1979-07-24 13:04:31.380 ,4,0,0.,24.0,0.,24.0,0.,24.0,0.,24.0
1979-07-24 13:04:55.380 ,5,1,0.,24.0,0.,24.0,0.,24.0,0.,24.0
1979-07-24 13:05:19.380 ,5,0,0.,24.0,0.,24.0,0.,24.0,0.,24.0
1979-07-24 13:05:43.380 ,6,1,0.,24.0,0.,24.0,0.,24.0,0.,24.0
1979-07-24 13:06:07.380 ,6,0,0.,24.0,0.,24.0,0.,24.0,0.,24.0
1979-07-24 13:06:31.380 ,7,0,0.,24.0,0.,24.0,0.,24.0,0.,24.0
1979-07-24 13:06:55.380 ,7,0,0.,24.0,0.,24.0,0.,24.0,0.,24.0
1979-07-24 13:07:19.380 ,0,0,0.,24.0,0.,24.0,0.,24.0,0.,24.0
1979-07-24 13:07:43.380 ,1,1,0.,24.0,0.,24.0,0.,24.0,0.,24.0
1979-07-24 13:08:07.380 ,2,1,0.,24.0,0.,24.0,0.,24.0,0.,24.0
1979-07-24 13:08:31.380 ,6,1,0.,24.0,0.,24.0,0.,24.0,0.,24.0
1979-07-24 13:08:55.380 ,5,1,0.,24.0,0.,24.0,0.,24.0,0.,24.0
1979-07-24 13:09:19.380 ,1,1,0.,24.0,0.,24.0,0.,24.0,0.,24.0
1979-07-24 13:09:43.380 ,2,1,0.,24.0,0.,24.0,0.,24.0,0.,24.0
1979-07-24 13:10:07.380 ,6,1,0.,24.0,0.,24.0,0.,24.0,0.,24.0
1979-07-24 13:10:31.380 ,5,1,0.,24.0,0.,24.0,0.,24.0,0.,24.0
1979-07-24 13:10:55.380 ,1,1,0.,24.0,0.,24.0,0.,24.0,0.,24.0
1979-07-24 13:11:19.380 ,2,1,0.,24.0,0.,24.0,0.,24.0,0.,24.0
1979-07-24 13:11:43.380 ,6,1,0.,24.0,0.,24.0,0.,24.0,0.,24.0
1979-07-24 13:12:07.380 ,5,1,0.,24.0,0.,24.0,0.,24.0,0.,24.0
1979-07-24 13:12:31.380 ,1,1,0.,24.0,0.,24.0,0.,24.0,0.,24.0
1979-07-24 13:12:55.380 ,2,1,0.,24.0,0.,24.0,0.,24.0,0.,24.0
1979-07-24 13:13:19.380 ,6,1,0.,24.0,0.,24.0,0.,24.0,0.,24.0
1979-07-24 13:13:43.380 ,5,1,0.,24.0,0.,24.0,0.,24.0,0.,24.0
1979-07-24 13:14:07.380 ,1,1,0.,24.0,0.,24.0,0.,24.0,0.,24.0
1979-07-24 13:14:31.380 ,2,1,0.,24.0,0.,24.0,0.,24.0,0.,24.0
1979-07-24 13:14:55.380 ,6,1,0.,24.0,0.,24.0,0.,24.0,0.,24.0
1979-07-24 13:15:19.380 ,5,1,0.,24.0,0.,24.0,0.,24.0,0.,24.0
1979-07-24 13:15:43.380 ,1,1,0.,24.0,0.,24.0,0.,24.0,0.,24.0
1979-07-24 13:16:07.380 ,2,1,0.,24.0,0.,24.0,0.,24.0,0.,24.0
1979-07-24 13:16:31.380 ,6,1,0.,24.0,0.,24.0,0.,24.0,0.,24.0
1979-07-24 13:16:55.380 ,5,1,0.,24.0,0.,24.0,0.,24.0,0.,24.0
1979-07-24 13:17:19.380 ,1,1,0.,24.0,0.,24.0,0.,24.0,0.,24.0
1979-07-24 13:17:43.380 ,0,0,0.,24.0,0.,24.0,0.,24.0,0.,24.0
1979-07-24 13:18:07.380 ,0,0,0.,24.0,0.,24.0,0.,24.0,0.,24.0
1979-07-24 13:18:31.380 ,5,1,0.,24.0,0.,24.0,0.,24.0,0.,24.0
1979-07-24 13:18:55.380 ,5,0,0.,24.0,0.,24.0,0.,24.0,0.,24.0
1979-07-24 13:19:19.380 ,4,1,0.,24.0,0.,24.0,0.,24.0,0.,24.0
1979-07-24 13:19:43.380 ,4,0,0.,24.0,0.,24.0,0.,24.0,0.,24.0
1979-07-24 13:20:07.380 ,3,1,0.,24.0,0.,24.0,0.,24.0,0.,24.0
1979-07-24 13:20:31.380 ,3,0,0.,24.0,0.,24.0,0.,24.0,0.,24.0
1979-07-24 13:20:55.380 ,2,1,0.,24.0,0.,24.0,0.,24.0,0.,24.0
1979-07-24 13:21:19.380 ,2,0,0.,24.0,0.,24.0,0.,24.0,0.,24.0
1979-07-24 13:21:43.380 ,1,1,0.,24.0,0.,24.0,0.,24.0,0.,24.0
1979-07-24 13:22:07.380 ,1,0,0.,24.0,0.,24.0,0.,24.0,0.,24.0
1979-07-24 13:22:31.380 ,0,1,0.,24.0,0.,24.0,0.,24.0,0.,24.0
1979-07-24 13:22:55.380 ,0,0,0.,24.0,0.,24.0,0.,24.0,0.,24.0
1979-07-24 13:23:19.380 ,0,1,0.,24.0,0.,24.0,0.,24.0,0.,24.0
1979-07-24 13:23:43.380 ,0,0,0.,24.0,0.,24.0,0.,24.0,0.,24.0
1979-07-24 13:24:07.380 ,1,1,0.,24.0,0.,24.0,0.,24.0,0.,24.0
1979-07-24 13:24:31.380 ,1,0,0.,24.0,0.,24.0,0.,24.0,0.,24.0
1979-07-24 13:24:55.380 ,2,1,0.,24.0,0.,24.0,0.,24.0,0.,24.0
1979-07-24 13:25:19.380 ,2,0,0.,24.0,0.,24.0,0.,24.0,0.,24.0
1979-07-24 13:25:43.380 ,3,1,0.,24.0,0.,24.0,0.,24.0,0.,24.0
1979-07-24 13:26:07.380 ,3,0,0.,24.0,0.,24.0,0.,24.0,0.,24.0
1979-07-24 13:26:31.380 ,4,1,0.,24.0,0.,24.0,0.,24.0,0.,24.0
1979-07-24 13:26:55.380 ,4,0,0.,24.0,0.,24.0,0.,24.0,0.,24.0
1979-07-24 13:27:19.380 ,5,1,0.,24.0,0.,24.0,0.,24.0,0.,24.0
1979-07-24 13:27:43.380 ,5,0,0.,24.0,0.,24.0,0.,24.0,0.,24.0
1979-07-24 13:28:07.380 ,6,1,0.,24.0,0.,24.0,0.,24.0,0.,24.0
1979-07-24 13:28:31.380 ,6,0,0.,24.0,0.,24.0,0.,24.0,0.,24.0
1979-07-24 13:28:55.380 ,7,1,0.,24.0,0.,24.0,0.,24.0,0.,24.0
1979-07-24 13:29:19.380 ,7,0,0.,24.0,0.,24.0,0.,24.0,0.,24.0
1979-07-24 13:29:43.380 ,7,1,0.,24.0,0.,24.0,0.,24.0,0.,24.0
1979-07-24 13:30:07.380 ,7,0,0.,24.0,0.,24.0,0.,24.0,0.,24.0
1979-07-24 13:30:31.380 ,6,1,0.,24.0,0.,24.0,0.,24.0,0.,24.0
1979-07-24 13:30:55.380 ,6,0,0.,24.0,0.,24.0,0.,24.0,0.,24.0
1979-07-24 13:31:19.380 ,5,1,0.,24.0,0.,24.0,0.,24.0,0.,24.0
1979-07-24 13:31:43.380 ,5,0,0.,24.0,0.,24.0,0.,24.0,0.,24.0
1979-07-24 13:32:07.380 ,4,1,0.,24.0,0.,24.0,0.,24.0,0.,24.0
1979-07-24 13:32:31.380 ,4,0,0.,24.0,0.,24.0,0.,24.0,1.,24.0
1979-07-24 13:32:55.380 ,3,1,0.,24.0,0.,24.0,0.,24.0,0.,24.0
1979-07-24 13:33:19.380 ,3,0,0.,24.0,0.,24.0,0.,24.0,0.,24.0
1979-07-24 13:33:43.380 ,2,1,0.,24.0,0.,24.0,0.,24.0,0.,24.0
1979-07-24 13:34:07.380 ,2,0,0.,24.0,0.,24.0,0.,24.0,0.,24.0
1979-07-24 13:34:31.380 ,1,1,1.,24.0,0.,24.0,0.,24.0,0.,24.0
1979-07-24 13:34:55.380 ,1,0,0.,24.0,0.,24.0,0.,24.0,0.,24.0
1979-07-24 13:35:19.380 ,0,1,0.,24.0,0.,24.0,0.,24.0,0.,24.0
1979-07-24 13:35:43.380 ,0,0,0.,24.0,0.,24.0,0.,24.0,0.,24.0
1979-07-24 13:36:07.380 ,0,1,0.,24.0,0.,24.0,0.,24.0,0.,24.0
1979-07-24 13:36:31.380 ,0,0,0.,24.0,0.,24.0,0.,24.0,0.,24.0
1979-07-24 13:36:55.380 ,1,1,0.,24.0,0.,24.0,0.,24.0,0.,24.0
1979-07-24 13:37:19.380 ,1,0,0.,24.0,0.,24.0,0.,24.0,0.,24.0
1979-07-24 13:37:43.380 ,2,1,0.,24.0,0.,24.0,0.,24.0,0.,24.0
1979-07-24 13:38:07.380 ,0,0,0.,24.0,0.,24.0,0.,24.0,0.,24.0
1979-07-24 13:39:43.380 ,0,0,0.,24.0,0.,24.0,0.,24.0,0.,24.0
1979-07-24 13:40:07.380 ,5,1,0.,24.0,0.,24.0,0.,24.0,0.,24.0
1979-07-24 13:40:31.380 ,5,0,0.,24.0,0.,24.0,0.,24.0,0.,24.0
1979-07-24 13:40:55.380 ,6,1,0.,24.0,0.,24.0,0.,24.0,0.,24.0
1979-07-24 13:41:19.380 ,6,0,0.,24.0,0.,24.0,0.,24.0,0.,24.0
1979-07-24 13:41:43.380 ,7,1,0.,24.0,0.,24.0,0.,24.0,0.,24.0
1979-07-24 13:42:07.380 ,7,0,0.,24.0,0.,24.0,0.,24.0,0.,24.0
1979-07-24 13:42:31.380 ,7,1,0.,24.0,0.,24.0,0.,24.0,0.,24.0
1979-07-24 13:42:55.380 ,7,0,0.,24.0,0.,24.0,0.,24.0,0.,24.0
1979-07-24 13:43:19.380 ,6,1,0.,24.0,0.,24.0,0.,24.0,0.,24.0
1979-07-24 13:43:43.380 ,6,0,0.,24.0,0.,24.0,0.,24.0,0.,24.0
1979-07-24 13:44:07.380 ,5,1,0.,24.0,0.,24.0,0.,24.0,0.,24.0
1979-07-24 13:44:31.380 ,5,0,0.,24.0,0.,24.0,0.,24.0,0.,24.0
1979-07-24 13:44:55.380 ,4,1,0.,24.0,0.,24.0,0.,24.0,0.,24.0
1979-07-24 13:45:19.380 ,4,0,0.,24.0,0.,24.0,0.,24.0,0.,24.0
1979-07-24 13:45:43.380 ,3,1,0.,24.0,0.,24.0,0.,24.0,0.,24.0
1979-07-24 13:46:07.380 ,3,0,0.,24.0,0.,24.0,0.,24.0,0.,24.0
1979-07-24 13:46:31.380 ,2,1,0.,24.0,0.,24.0,0.,24.0,0.,24.0
1979-07-24 13:46:55.380 ,2,0,0.,24.0,0.,24.0,0.,24.0,0.,24.0
1979-07-24 13:47:19.380 ,1,1,0.,24.0,0.,24.0,0.,24.0,0.,24.0
1979-07-24 13:47:43.380 ,1,0,0.,24.0,0.,24.0,0.,24.0,0.,24.0
1979-07-24 13:48:07.380 ,0,1,0.,24.0,0.,24.0,0.,24.0,0.,24.0
1979-07-24 13:48:31.380 ,0,0,0.,24.0,0.,24.0,0.,24.0,0.,24.0
1979-07-24 13:48:55.380 ,0,1,0.,24.0,0.,24.0,0.,24.0,0.,24.0
1979-07-24 13:49:19.380 ,0,0,1.,24.0,0.,24.0,0.,24.0,0.,24.0
1979-07-24 13:49:43.380 ,1,1,0.,24.0,0.,24.0,0.,24.0,0.,24.0
1979-07-24 13:50:07.380 ,1,0,0.,24.0,0.,24.0,0.,24.0,0.,24.0
1979-07-24 13:50:31.380 ,2,1,0.,24.0,0.,24.0,0.,24.0,0.,24.0
1979-07-24 13:50:55.380 ,2,0,0.,24.0,0.,24.0,0.,24.0,0.,24.0
1979-07-24 13:51:19.380 ,3,1,0.,24.0,0.,24.0,0.,24.0,0.,24.0
1979-07-24 13:51:43.380 ,3,0,0.,24.0,0.,24.0,0.,24.0,0.,24.0
1979-07-24 13:52:07.380 ,4,1,0.,24.0,0.,24.0,0.,24.0,0.,24.0
1979-07-24 13:52:31.380 ,4,0,0.,24.0,0.,24.0,0.,24.0,0.,24.0
1979-07-24 13:52:55.380 ,5,1,0.,24.0,0.,24.0,0.,24.0,0.,24.0
1979-07-24 13:53:19.380 ,5,0,0.,24.0,0.,24.0,0.,24.0,0.,24.0
1979-07-24 13:53:43.380 ,6,1,0.,24.0,0.,24.0,0.,24.0,0.,24.0
1979-07-24 13:54:07.380 ,6,0,0.,24.0,0.,24.0,0.,24.0,0.,24.0
1979-07-24 13:54:31.370 ,7,0,0.,24.0,0.,24.0,0.,24.0,0.,24.0
1979-07-24 13:54:55.370 ,7,0,0.,24.0,0.,24.0,0.,24.0,0.,24.0
1979-07-24 13:55:19.370 ,5,1,0.,24.0,0.,24.0,0.,24.0,0.,24.0
1979-07-24 13:55:43.370 ,1,1,0.,24.0,0.,24.0,0.,24.0,0.,24.0
1979-07-24 13:56:07.370 ,2,1,0.,24.0,0.,24.0,0.,24.0,0.,24.0
1979-07-24 13:56:31.370 ,6,1,0.,24.0,0.,24.0,0.,24.0,0.,24.0
1979-07-24 13:56:55.370 ,5,1,0.,24.0,0.,24.0,0.,24.0,0.,24.0
1979-07-24 13:57:19.370 ,1,1,0.,24.0,0.,24.0,0.,24.0,0.,24.0
1979-07-24 13:57:43.370 ,2,1,0.,24.0,0.,24.0,0.,24.0,0.,24.0
1979-07-24 13:58:07.370 ,6,1,0.,24.0,0.,24.0,0.,24.0,0.,24.0
1979-07-24 13:58:31.370 ,5,1,0.,24.0,0.,24.0,0.,24.0,0.,24.0
1979-07-24 13:58:55.370 ,1,1,0.,24.0,0.,24.0,0.,24.0,0.,24.0
1979-07-24 13:59:19.370 ,2,1,0.,24.0,0.,24.0,0.,24.0,0.,24.0
1979-07-24 13:59:43.370 ,6,1,0.,24.0,0.,24.0,0.,24.0,0.,24.0
1979-07-24 14:00:07.370 ,5,1,0.,24.0,0.,24.0,0.,24.0,0.,24.0
1979-07-24 14:00:31.370 ,1,1,0.,24.0,0.,24.0,0.,24.0,0.,24.0
1979-07-24 14:00:55.370 ,2,1,0.,24.0,0.,24.0,0.,24.0,0.,24.0
1979-07-24 14:01:19.370 ,6,1,0.,24.0,0.,24.0,0.,24.0,0.,24.0
1979-07-24 14:01:43.370 ,5,1,0.,24.0,0.,24.0,0.,24.0,0.,24.0
1979-07-24 14:02:07.370 ,1,1,1.,24.0,0.,24.0,0.,24.0,0.,24.0
1979-07-24 14:02:31.370 ,2,1,0.,24.0,0.,24.0,0.,24.0,0.,24.0
1979-07-24 14:02:55.370 ,6,1,0.,24.0,0.,24.0,0.,24.0,0.,24.0
1979-07-24 14:03:19.370 ,5,1,0.,24.0,0.,24.0,0.,24.0,0.,24.0
1979-07-24 14:03:43.370 ,1,1,0.,24.0,0.,24.0,0.,24.0,0.,24.0
1979-07-24 14:04:07.370 ,2,1,0.,24.0,0.,24.0,0.,24.0,0.,24.0
1979-07-24 14:04:31.370 ,6,1,0.,24.0,0.,24.0,0.,24.0,0.,24.0
1979-07-24 14:04:55.370 ,5,1,0.,24.0,0.,24.0,0.,24.0,0.,24.0
1979-07-24 14:05:19.370 ,1,1,0.,24.0,0.,24.0,0.,24.0,0.,24.0
1979-07-24 14:05:43.370 ,0,0,0.,24.0,0.,24.0,0.,24.0,0.,24.0
1979-07-24 14:06:07.370 ,0,0,0.,24.0,0.,24.0,0.,24.0,0.,24.0
1979-07-24 14:06:31.370 ,5,1,0.,24.0,0.,24.0,0.,24.0,0.,24.0
1979-07-24 14:06:55.370 ,5,0,0.,24.0,0.,24.0,0.,24.0,0.,24.0
1979-07-24 14:07:19.370 ,4,1,0.,24.0,0.,24.0,0.,24.0,0.,24.0
1979-07-24 14:07:43.370 ,4,0,0.,24.0,0.,24.0,0.,24.0,0.,24.0
1979-07-24 14:08:07.370 ,3,1,0.,24.0,0.,24.0,0.,24.0,0.,24.0
1979-07-24 14:08:31.370 ,3,0,0.,24.0,0.,24.0,0.,24.0,0.,24.0
1979-07-24 14:08:55.370 ,2,1,0.,24.0,0.,24.0,0.,24.0,0.,24.0
1979-07-24 14:09:19.370 ,2,0,0.,24.0,0.,24.0,0.,24.0,0.,24.0
1979-07-24 14:09:43.370 ,1,1,0.,24.0,0.,24.0,0.,24.0,0.,24.0
1979-07-24 14:10:07.370 ,1,0,0.,24.0,0.,24.0,0.,24.0,0.,24.0
1979-07-24 14:10:31.370 ,0,1,0.,24.0,0.,24.0,0.,24.0,0.,24.0
1979-07-24 14:10:55.370 ,0,0,0.,24.0,0.,24.0,0.,24.0,0.,24.0
1979-07-24 14:11:19.370 ,0,1,0.,24.0,0.,24.0,0.,24.0,0.,24.0
1979-07-24 14:11:43.370 ,0,0,0.,24.0,0.,24.0,0.,24.0,0.,24.0
1979-07-24 14:12:07.370 ,1,1,0.,24.0,0.,24.0,0.,24.0,0.,24.0
1979-07-24 14:12:31.370 ,1,0,0.,24.0,0.,24.0,0.,24.0,0.,24.0
1979-07-24 14:12:55.370 ,2,1,0.,24.0,0.,24.0,0.,24.0,0.,24.0
1979-07-24 14:13:19.370 ,2,0,0.,24.0,0.,24.0,0.,24.0,0.,24.0
1979-07-24 14:13:43.370 ,3,1,0.,24.0,0.,24.0,0.,24.0,0.,24.0
1979-07-24 14:14:07.370 ,3,0,0.,24.0,0.,24.0,0.,24.0,0.,24.0
1979-07-24 14:14:31.370 ,4,1,0.,24.0,0.,24.0,0.,24.0,0.,24.0
1979-07-24 14:14:55.370 ,4,0,1.,24.0,0.,24.0,0.,24.0,0.,24.0
1979-07-24 14:15:19.370 ,5,1,0.,24.0,0.,24.0,0.,24.0,0.,24.0
1979-07-24 14:15:43.370 ,5,0,0.,24.0,0.,24.0,0.,24.0,0.,24.0
1979-07-24 14:16:07.370 ,6,1,0.,24.0,0.,24.0,0.,24.0,0.,24.0
1979-07-24 14:16:31.370 ,6,0,1.,24.0,0.,24.0,0.,24.0,0.,24.0
1979-07-24 14:16:55.370 ,7,1,0.,24.0,0.,24.0,0.,24.0,0.,24.0
1979-07-24 14:17:19.370 ,7,0,0.,24.0,0.,24.0,0.,24.0,0.,24.0
1979-07-24 14:17:43.370 ,7,1,0.,24.0,0.,24.0,0.,24.0,0.,24.0
1979-07-24 14:18:07.370 ,7,0,0.,24.0,0.,24.0,0.,24.0,0.,24.0
1979-07-24 14:18:31.370 ,6,1,0.,24.0,0.,24.0,0.,24.0,0.,24.0
1979-07-24 14:18:55.370 ,6,0,0.,24.0,0.,24.0,0.,24.0,0.,24.0
1979-07-24 14:19:19.370 ,5,1,0.,24.0,0.,24.0,0.,24.0,0.,24.0
1979-07-24 14:19:43.370 ,5,0,0.,24.0,0.,24.0,0.,24.0,0.,24.0
1979-07-24 14:20:07.370 ,4,1,0.,24.0,0.,24.0,0.,24.0,0.,24.0
1979-07-24 14:20:31.370 ,4,0,0.,24.0,0.,24.0,0.,24.0,0.,24.0
1979-07-24 14:20:55.370 ,3,1,0.,24.0,0.,24.0,0.,24.0,0.,24.0
1979-07-24 14:21:19.370 ,3,0,0.,24.0,0.,24.0,0.,24.0,0.,24.0
1979-07-24 14:21:43.370 ,2,1,0.,24.0,0.,24.0,0.,24.0,0.,24.0
1979-07-24 14:22:07.370 ,2,0,0.,24.0,0.,24.0,0.,24.0,0.,24.0
1979-07-24 14:22:31.370 ,1,1,0.,24.0,0.,24.0,0.,24.0,0.,24.0
1979-07-24 14:22:55.370 ,1,0,0.,24.0,0.,24.0,0.,24.0,0.,24.0
1979-07-24 14:23:19.370 ,0,1,1.,24.0,0.,24.0,0.,24.0,0.,24.0
1979-07-24 14:23:43.370 ,0,0,0.,24.0,0.,24.0,0.,24.0,0.,24.0
1979-07-24 14:24:07.370 ,0,1,0.,24.0,0.,24.0,0.,24.0,0.,24.0
1979-07-24 14:24:31.370 ,0,0,0.,24.0,0.,24.0,0.,24.0,0.,24.0
1979-07-24 14:24:55.370 ,1,1,0.,24.0,0.,24.0,0.,24.0,0.,24.0
1979-07-24 14:25:19.370 ,1,0,0.,24.0,0.,24.0,0.,24.0,0.,24.0
1979-07-24 14:25:43.370 ,2,1,0.,24.0,0.,24.0,0.,24.0,0.,24.0
1979-07-24 14:26:07.370 ,2,0,0.,24.0,0.,24.0,0.,24.0,0.,24.0
1979-07-24 14:26:31.370 ,3,1,0.,24.0,0.,24.0,0.,24.0,0.,24.0
1979-07-24 14:26:55.370 ,3,0,0.,24.0,0.,24.0,0.,24.0,0.,24.0
1979-07-24 14:27:19.370 ,4,1,0.,24.0,0.,24.0,0.,24.0,0.,24.0
1979-07-24 14:27:43.370 ,4,0,0.,24.0,0.,24.0,0.,24.0,0.,24.0
1979-07-24 14:28:07.370 ,5,1,0.,24.0,0.,24.0,0.,24.0,0.,24.0
1979-07-24 14:28:31.370 ,5,0,0.,24.0,0.,24.0,0.,24.0,0.,24.0
1979-07-24 14:28:55.370 ,6,1,0.,24.0,0.,24.0,0.,24.0,0.,24.0
1979-07-24 14:29:19.370 ,6,0,0.,24.0,0.,24.0,0.,24.0,0.,24.0
1979-07-24 14:29:43.370 ,7,1,0.,24.0,0.,24.0,0.,24.0,0.,24.0
1979-07-24 14:30:07.370 ,7,0,0.,24.0,0.,24.0,0.,24.0,0.,24.0
1979-07-24 14:30:31.370 ,7,1,0.,24.0,0.,24.0,0.,24.0,0.,24.0
1979-07-24 14:30:55.370 ,7,0,0.,24.0,0.,24.0,0.,24.0,0.,24.0
1979-07-24 14:31:19.370 ,6,1,0.,24.0,0.,24.0,0.,24.0,0.,24.0
1979-07-24 14:31:43.370 ,6,0,0.,24.0,0.,24.0,0.,24.0,0.,24.0
1979-07-24 14:32:07.370 ,5,1,0.,24.0,0.,24.0,0.,24.0,0.,24.0
1979-07-24 14:32:31.370 ,5,0,0.,24.0,0.,24.0,0.,24.0,0.,24.0
1979-07-24 14:32:55.370 ,4,1,0.,24.0,0.,24.0,0.,24.0,0.,24.0
1979-07-24 14:33:19.370 ,4,0,0.,24.0,0.,24.0,0.,24.0,0.,24.0
1979-07-24 14:33:43.370 ,3,1,0.,24.0,0.,24.0,0.,24.0,0.,24.0
1979-07-24 14:34:07.370 ,3,0,0.,24.0,0.,24.0,0.,24.0,0.,24.0
1979-07-24 14:34:31.370 ,2,1,0.,24.0,0.,24.0,0.,24.0,0.,24.0
1979-07-24 14:34:55.370 ,2,0,0.,24.0,0.,24.0,0.,24.0,0.,24.0
1979-07-24 14:35:19.370 ,1,1,0.,24.0,0.,24.0,0.,24.0,0.,24.0
1979-07-24 14:35:43.370 ,1,0,0.,24.0,0.,24.0,0.,24.0,0.,24.0
1979-07-24 14:36:07.370 ,0,1,0.,24.0,0.,24.0,0.,24.0,0.,24.0
1979-07-24 14:36:31.370 ,0,0,0.,24.0,0.,24.0,0.,24.0,0.,24.0
1979-07-24 14:36:55.370 ,0,1,0.,24.0,0.,24.0,0.,24.0,0.,24.0
1979-07-24 14:37:19.370 ,0,0,0.,24.0,0.,24.0,0.,24.0,0.,24.0